This site uses a module created by best online poker sites.

BSB police report ending August 8, 2018

Print
"08/07/2018","00:00","218CR0019812","SUSPICIOUS ACTIVITY","SUSPICIOUS ACTIVITY","1370 HARRISON","",""
"08/07/2018","00:09","218CR0019813","DISTURBANCE","DISTURBANCE","1542 SAGE ST","",""
"08/07/2018","00:11","218CR0019814","MEDICAL - EMERGENCY","MEDICAL - EMERGENCY","1515 OREGON #505","",""
"08/07/2018","00:22","218CR0019815","SUSPICIOUS ACTIVITY","SUSPICIOUS ACTIVITY","3400 HILL APT 1704","",""
"08/07/2018","00:23","218CR0019816","BUSINESS CHECK","BUSINESS CHECK","1915 DEWEY","",""
"08/07/2018","00:34","218CR0019817","CITIZEN AID","CITIZEN AID","3499 HARRISON AVE","",""
"08/07/2018","00:34","218CR0019818","SUSPICIOUS ACTIVITY","SUSPICIOUS ACTIVITY","1705 WALL ST","",""
"08/07/2018","00:36","218CR0019819","MEDICAL - EMERGENCY","MEDICAL - EMERGENCY","3101 DIXON","",""
"08/07/2018","00:41","218CR0019820","ALARM - BURGLARY","ALARM - BURGLARY","************","",""
"08/07/2018","00:48","218CR0019821","DISTURBANCE-NOISE","DISTURBANCE-NOISE","1937 S ARIZONA","",""
"08/07/2018","00:50","218CR0019822","MEDICAL - EMERGENCY","MEDICAL - EMERGENCY","212 SILVERBOW HOMES","",""
"08/07/2018","01:09","218CR0019823","SUSPICIOUS ACTIVITY","SUSPICIOUS ACTIVITY","1129 W GRANITE","",""
"08/07/2018","01:36","218CR0019824","SUSPICIOUS ACTIVITY","SUSPICIOUS ACTIVITY","2401 CONTINENTAL DR","",""
"08/07/2018","01:37","218CR0019825","T/S","T/S","FARRAGUT AND GEORGE","",""
"08/07/2018","01:46","218CR0019826","WELFARE CHECK","WELFARE CHECK","808 W BROADWAY","",""
"08/07/2018","01:54","218CR0019827","ALL OTHER","ALL OTHER","1000 GEORGE ST","",""
"08/07/2018","02:08","218CR0019828","JUVENILE MISC","JUVENILE MISC","************","",""
"08/07/2018","02:41","218CR0019829","CRIMINAL TRESPASS","CRIMINAL TRESPASS","25 W ALUMINUM","",""
"08/07/2018","02:58","218CR0019830","HIT AND RUN","NO LIABILITY INSURANCE IN EFF.","3520 GAYLORD","",""
"08/07/2018","03:05","218CR0019831","THEFT","THEFT FROM BUILDINGS","1411 SILBERBOW HOMES","",""
"08/07/2018","03:26","218CR0019832","SUSPICIOUS ACTIVITY","SUSPICIOUS ACTIVITY","GEORGE AND TEXAS","",""
"08/07/2018","03:34","218CR0019833","SUSPICIOUS ACTIVITY","SUSPICIOUS ACTIVITY","1260 FARRELL ST","",""
"08/07/2018","03:58","218CR0019834","T/S","T/S","GEORGIA AND WALL","",""
"08/07/2018","05:41","218CR0019835","THEFT","THEFT, SHOPLIFT","3901 HARRISON","",""
"08/07/2018","06:25","218CR0019836","THEFT","CRIMINAL CONTEMPT","3901 HARRISON","ARREST(s) MADE",""
"08/07/2018","06:31","218CR0019837","WELFARE CHECK","WELFARE CHECK","1400 BLK N EXCELSIOR","",""
"08/07/2018","06:53","218CR0019838","CRIMINAL TRESPASS","CRIMINAL TRESPASS","531 S MONTANA","",""
"08/07/2018","07:10","218CR0019839","T/S","T/S","PAXSON AND DEWEY","",""
"08/07/2018","07:20","218CR0019840","T/S","T/S","WARREN AND TAFT","",""
"08/07/2018","07:38","218CR0019841","T/S","T/S","MONTANA ST AND ALUMINUM ST","",""
"08/07/2018","07:49","218CR0019842","T/S","T/S","PLATINUM AND IDAHO","",""
"08/07/2018","07:53","218CR0019843","PARKING COMPLAINT","PARKING COMPLAINT","531 S MONTANA","",""
"08/07/2018","07:58","218CR0019844","CIVIL PAPER SERVICE","CIVIL PAPER SERVICE","2825 FARAGUT A 101","",""
"08/07/2018","08:10","218CR0019845","CIVIL PAPER SERVICE","CIVIL PAPER SERVICE","1950 MONROE","",""
"08/07/2018","08:15","218CR0019846","CIVIL PAPER SERVICE","CIVIL PAPER SERVICE","3060 JOSEPHINE ST","",""
"08/07/2018","08:16","218CR0019847","MEDICAL - EMERGENCY","MEDICAL - EMERGENCY","2320 AMHERST AVE","",""
"08/07/2018","08:21","218CR0019848","CIVIL PAPER SERVICE","CIVIL PAPER SERVICE","225 N ALASKA","",""
"08/07/2018","08:23","218CR0019849","TRAFFIC HAZARD","TRAFFIC HAZARD","WOOLMAN AND N WYOMING","",""
"08/07/2018","08:24","218CR0019850","CIVIL PAPER SERVICE","CIVIL PAPER SERVICE","ROCKY MOUTAIN FCU","",""
"08/07/2018","08:25","218CR0019851","CIVIL PAPER SERVICE","CIVIL PAPER SERVICE","14 S JACKSON","",""
"08/07/2018","08:26","218CR0019852","CIVIL PAPER SERVICE","CIVIL PAPER SERVICE","649 1/2 S IDAHO","",""
"08/07/2018","08:34","218CR0019853","CITIZEN AID","CITIZEN AID","445 CENTENIAL COMMUNITY HEALTH","",""
"08/07/2018","08:45","218CR0019854","SUSPICIOUS ACTIVITY","SUSPICIOUS ACTIVITY","ALUMINUM AND ARIZONA","",""
"08/07/2018","08:57","218CR0019855","CIVIL PAPER SERVICE","CIVIL PAPER SERVICE","205 NEVERSWEAT","",""
"08/07/2018","09:03","218CR0019856","CIVIL PAPER SERVICE","CIVIL PAPER SERVICE","904 W PLATINUM","",""
"08/07/2018","09:03","218CR0019857","CIVIL PAPER SERVICE","CIVIL PAPER SERVICE","3939 HARRISON MURDOCHS","",""
"08/07/2018","09:17","218CR0019858","ALL OTHER","ALL OTHER","303 1/2 S IDAHO","",""
"08/07/2018","09:35","218CR0019859","ANIMAL COMPLAINT-BITE","ANIMAL COMPLAINT-BITE","GRANITE AND MONTANA","",""
"08/07/2018","09:52","218CR0019860","STOLEN VEHICLE","MOTOR VEHICLE THEFT","2050 HARRISON REDLINE SPORTS","ARREST(s) MADE",""
"08/07/2018","10:00","218CR0019861","CIVIL PAPER SERVICE","CIVIL PAPER SERVICE","1305 SILVER BOW HOMES","",""
"08/07/2018","10:01","218CR0019863","INFORMATION ONLY","INFORMATION ONLY","BUTTE AREA","",""
"08/07/2018","10:01","218CR0019862","CITIZEN AID","CITIZEN AID","225 N ALASKA","",""
"08/07/2018","10:02","218CR0019864","BURGLARY","BURGLARY","3837 HARRISON AVE","",""
"08/07/2018","10:03","218CR0019865","CIVIL PAPER SERVICE","CIVIL PAPER SERVICE","221 N CLARK","",""
"08/07/2018","10:04","218CR0019866","CIVIL PAPER SERVICE","CIVIL PAPER SERVICE","119800 RICK JONES WAY SEACAST","",""
"08/07/2018","10:10","218CR0019867","CIVIL PAPER SERVICE","CIVIL PAPER SERVICE","323 S MONTANA ST APT 1","",""
"08/07/2018","10:23","218CR0019868","ATL","DRIVE WHILE SUSP. OR REVOKED","ELIZABETH WARREN AND HARRISON","",""
"08/07/2018","10:25","218CR0019869","WANTED PERSON","WANTED PERSON","************","",""
"08/07/2018","10:34","218CR0019870","T/S","T/S","GRAND AND CONTINENTAL","",""
"08/07/2018","10:40","218CR0019871","ALARM - FIRE","ALARM - FIRE","1405 W GRANITE","",""
"08/07/2018","11:00","218CR0019872","THEFT","THEFT","1301 CASEY","",""
"08/07/2018","11:15","218CR0019873","INFORMATION ONLY","INFORMATION ONLY","","",""
"08/07/2018","11:17","218CR0019874","ASSIST OTHER AGENCY","ASSIST OTHER AGENCY","390 HOLMES","",""
"08/07/2018","11:25","218CR0019875","WELFARE CHECK","WELFARE CHECK","1808 BANKS","",""
"08/07/2018","11:41","218CR0019876","THEFT","THEFT","225 N ALASKA","",""
"08/07/2018","12:02","218CR0019877","WANTED PERSON","WANTED PERSON","************","",""
"08/07/2018","12:16","218CR0019878","THEFT","MOTOR VEHICLE THEFT","507 W WOOLMAN","",""
"08/07/2018","12:18","218CR0019879","WANTED PERSON","WANTED PERSON","************","",""
"08/07/2018","12:20","218CR0019880","LED BUSINESS","LED BUSINESS","UPTOWN FOOT PATROL","",""
"08/07/2018","12:31","218CR0019881","T/S","T/S","2611 HARRISON AVE","",""
"08/07/2018","12:43","218CR0019882","LED BUSINESS","LED BUSINESS","155 W GRANITE","",""
"08/07/2018","12:46","218CR0019883","CIVIL STANDBY","CIVIL STANDBY","1111 A ST","",""
"08/07/2018","13:03","218CR0019884","MEDICAL - EMERGENCY","MEDICAL - EMERGENCY","1324 HARRISON AVE","",""
"08/07/2018","13:24","218CR0019885","INTOXICATED PERSON","INTOXICATED PERSON","10 BLK W PARK","",""
"08/07/2018","13:29","218CR0019886","HARASSMENT","HARASSMENT","225 N ALASKA","",""
"08/07/2018","13:31","218CR0019887","THEFT","THEFT, ALL OTHERS","225 N ALASKA","",""
"08/07/2018","13:45","218CR0019888","ATL","ATL","2100 CORNELL","",""
"08/07/2018","14:10","218CR0019889","CIVIL PAPER SERVICE","CIVIL PAPER SERVICE","830 S COLORADO","",""
"08/07/2018","14:17","218CR0019890","CIVIL PAPER SERVICE","CIVIL PAPER SERVICE","1134 CALIFORNIA","",""
"08/07/2018","14:17","218CR0019891","THEFT","THEFT","306 N MAIN ST APT D","",""
"08/07/2018","14:34","218CR0019892","ABANDONED VEHICLE","ABANDONED VEHICLE","1900 BLK GARFIELD","",""
"08/07/2018","14:54","218CR0019894","THEFT","THEFT, ALL OTHERS","333 E BROADWAY","",""
"08/07/2018","14:54","218CR0019893","T/S","T/S @ CONTINENTAL AND WALNUT","CONTINENTAL AND WALNUT","",""
"08/07/2018","14:58","218CR0019895","STOLEN VEHICLE","CRIMINAL CONTEMPT","ROSIN BROTHERS","ARREST(s) MADE",""
"08/07/2018","15:18","218CR0019896","T/S","DRIVING W/OUT VALID D/L","TEXAS AVE AND WALL ST","",""
"08/07/2018","15:46","218CR0019897","MEDICAL - EMERGENCY","MEDICAL - EMERGENCY","3450 MONROE MACKENZIE RIVER","",""
"08/07/2018","15:48","218CR0019898","STOLEN VEHICLE","STOLEN VEHICLE","ROSIN BROTHERS","",""
"08/07/2018","16:03","218CR0019899","MEDICAL - EMERGENCY","MEDICAL - EMERGENCY","1951 GAYLORD ST","",""
"08/07/2018","16:06","218CR0019901","VANDALISM/CRIMINAL MISCHIEF","VANDALISM/CRIMINAL MISCHIEF","400 W PORPHYRY SILVERBOW SURGI","",""
"08/07/2018","16:07","218CR0019900","T/S","T/S @ ARIZONA AND SECOND","ARIZONA AND SECOND","",""
"08/07/2018","16:10","218CR0019902","ALARM - BURGLARY","ALARM - BURGLARY","************","",""
"08/07/2018","16:27","218CR0019903","ASSIST OTHER AGENCY","ASSIST OTHER AGENCY","CIVIC CENTER RD // CORRAL ST","",""
"08/07/2018","16:32","218CR0019904","WANTED PERSON","WANTED PERSON","************","",""
"08/07/2018","16:36","218CR0019905","TRAFFIC HAZARD","TRAFFIC HAZARD","HARRISON AND MCKINLEY","",""
"08/07/2018","16:49","218CR0019906","SUSPICIOUS ACTIVITY","SUSPICIOUS ACTIVITY","1600 BLK FLORENCE AVE","",""
"08/07/2018","16:54","218CR0019907","WELFARE CHECK","WELFARE CHECK","4034 ELIZABETH WARREN #117","",""
"08/07/2018","17:02","218CR0019908","DISTURBANCE","PFMA - MINOR INJ/PHYSICAL CONT","832 S MAIN","",""
"08/07/2018","17:08","218CR0019909","UNWANTED PERSON","UNWANTED PERSON","************","",""
"08/07/2018","17:31","218CR0019910","HARASSMENT","HARASSMENT","225 N ALASKA","",""
"08/07/2018","17:39","218CR0019911","ALL OTHER","ALL OTHER","PLATINUM AND MONTANA","",""
"08/07/2018","17:48","218CR0019912","WANTED PERSON","WANTED PERSON","************","",""
"08/07/2018","17:53","218CR0019913","LOST OR STOLEN PROPERTY","LOST OR STOLEN PROPERTY","1231 FIRST","",""
"08/07/2018","18:05","218CR0019914","CIVIL PAPER SERVICE","CIVIL PAPER SERVICE","225 N ALASKA","",""
"08/07/2018","18:47","218CR0019915","SUSPICIOUS ACTIVITY","SUSPICIOUS ACTIVITY","2929 HARRISON AVE","",""
"08/07/2018","18:52","218CR0019916","DISTURBANCE","DISTURBANCE","668 S MONTANA APT #3","",""
"08/07/2018","18:54","218CR0019917","UNKNOWN PROBLEM","UNKNOWN PROBLEM","1708 HOBSON AVE","",""
"08/07/2018","19:01","218CR0019918","VANDALISM/CRIMINAL MISCHIEF","VANDALISM/CRIMINAL MISCHIEF","2309 OTTAWA ST","",""
"08/07/2018","19:20","218CR0019919","SUSPICIOUS ACTIVITY","DRIVING W/OUT VALID D/L","2900 HARRISON AVE","ARREST(s) MADE",""
"08/07/2018","19:27","218CR0019920","MEDICAL - EMERGENCY","MEDICAL - EMERGENCY","180 TRINITY LOOP","",""
"08/07/2018","20:03","218CR0019921","THEFT","THEFT","3901 HARRISON AVE","",""
"08/07/2018","20:27","218CR0019922","CIVIL STANDBY","CIVIL STANDBY","225 N ALASKA","",""
"08/07/2018","20:30","218CR0019923","TRAFFIC","TRAFFIC","MT CON MINE PARKING LOT","",""
"08/07/2018","20:32","218CR0019924","ALARM - BURGLARY","ALARM - BURGLARY","************","",""
"08/07/2018","20:34","218CR0019925","ALL OTHER","ALL OTHER","1467 SUNRISE","",""
"08/07/2018","20:40","218CR0019926","WANTED PERSON","WANTED PERSON","************","",""
"08/07/2018","21:04","218CR0019927","WANTED PERSON","WANTED PERSON","************","",""
"08/07/2018","21:15","218CR0019928","CIVIL PAPER SERVICE","CIVIL PAPER SERVICE","MAIN AND QUARTZ ST","",""
"08/07/2018","21:25","218CR0019929","WANTED PERSON","WANTED PERSON","************","",""
"08/07/2018","21:39","218CR0019930","HIT AND RUN","HIT AND RUN","3901 HARRISON","",""
"08/07/2018","21:57","218CR0019931","CIVIL STANDBY","CIVIL STANDBY","225 N ALASKA","",""
"08/07/2018","22:05","218CR0019932","ATL","ATL","GEORGE AND MONTANA","",""
"08/07/2018","22:05","218CR0019933","T/S","T/S @ 2500 MASSACHUSETTS","2500 MASSACHUSETTS","",""
"08/07/2018","22:09","218CR0019934","ALL OTHER","ALL OTHER","COPPER MOUNTAIN PARK","",""
"08/07/2018","22:18","218CR0019935","DISTURBANCE","DISTURBANCE","531 S MONTANA","",""
"08/07/2018","22:50","218CR0019936","T/S","T/S @ HARRISON AND B ST","HARRISON AND B ST","",""
"08/07/2018","23:00","218CR0019937","SUSPICIOUS ACTIVITY","SUSPICIOUS ACTIVITY","2227 HARRISON","",""
"08/07/2018","23:04","218CR0019938","JUVENILE MISC","JUVENILE MISC","************","",""
"08/07/2018","23:05","218CR0019939","ASSAULT","ASSAULT, SIMPLE","1817 FLORENCE","",""
"08/07/2018","23:28","218CR0019940","T/S","T/S","RANCHLAND PACKING AND SANTA","",""
"08/07/2018","23:53","218CR0019941","SUSPICIOUS ACTIVITY","SUSPICIOUS ACTIVITY","21 S MONTANA","",""
"08/07/2018","23:57","218CR0019942","SUSPICIOUS ACTIVITY","SUSPICIOUS ACTIVITY","1129 W GRANITE","",""
"08/08/2018","00:25","218CR0019943","ALL OTHER","ALL OTHER","225 N ALASKA","",""
"08/08/2018","01:05","218CR0019944","T/S","T/S","600 W PARK","",""
"08/08/2018","01:15","218CR0019945","SUSPICIOUS ACTIVITY","SUSPICIOUS ACTIVITY","2124 ABERDEEN","",""
"08/08/2018","01:16","218CR0019946","SUSPICIOUS ACTIVITY","SUSPICIOUS ACTIVITY","700 BLK N WYOMING","",""
"08/08/2018","01:23","218CR0019947","THEFT","THEFT","1706 HOBSON","",""
"08/08/2018","02:03","218CR0019948","T/S","HABITUAL OFFENDER OPER. VEH","CENTENNIAL AND EXCELSIOR","ARREST(s) MADE",""
"08/08/2018","02:15","218CR0019949","ALARM - BURGLARY","CRIMINAL MISCHIEF","1 E BROADWAY","ARREST(s) MADE",""
"08/08/2018","02:15","218CR0019950","SUSPICIOUS ACTIVITY","SUSPICIOUS ACTIVITY","ROSALIE MANOR","",""
"08/08/2018","02:49","218CR0019951","T/S","DRIVE WHILE SUSP. OR REVOKED","GRANITE AND WYOMING","",""
"08/08/2018","03:07","218CR0019952","SUSPICIOUS ACTIVITY","SUSPICIOUS ACTIVITY","1701 HARRISON AV","",""
"08/08/2018","04:36","218CR0019953","MEDICAL - EMERGENCY","MEDICAL - EMERGENCY","2000 YALE AVE","",""
"08/08/2018","04:38","218CR0019954","T/S","T/S @ PLATNIUM AND MONTANA","PLATNIUM AND MONTANA","",""
"08/08/2018","05:13","218CR0019955","SUSPICIOUS ACTIVITY","SUSPICIOUS ACTIVITY","2300 BLK SOUTH DRIVE","",""
"08/08/2018","05:18","218CR0019956","INFORMATION ONLY","INFORMATION ONLY","MISSOULA","",""
"08/08/2018","06:10","218CR0019957","VANDALISM/CRIMINAL MISCHIEF","CRIMINAL MISCHIEF","2975 WASHOE ST","",""
"08/08/2018","07:08","218CR0019958","T/S","T/S @ GEORGE AND LOWELL","GEORGE AND LOWELL","",""
"08/08/2018","07:23","218CR0019959","CIVIL PAPER SERVICE","CIVIL PAPER SERVICE","133 W PACIFIC","",""
"08/08/2018","07:32","218CR0019961","PARKING COMPLAINT","PARKING COMPLAINT","1119 W PLATINUM","",""
"08/08/2018","07:38","218CR0019962","ACCIDENT","ACCIDENT","2610 AMHERST","",""
"08/08/2018","07:55","218CR0019963","CIVIL PAPER SERVICE","CIVIL PAPER SERVICE","910 EVANS APT B4","",""
"08/08/2018","08:04","218CR0019964","CIVIL PAPER SERVICE","CIVIL PAPER SERVICE","1714 SAMPSON","",""
"08/08/2018","08:09","218CR0019965","T/S","T/S @ QUARTZ AND MAIN","QUARTZ AND MAIN","",""
 
Tuesday the 21st. Affiliate Marketing.
Copyright 2012

©